Theta_e
324 323 323 322 320 317 316 317 317 318 316 316 315 314 314 314 313 313 312 311 310 310 311 310 310 309 308 309 308 308 308 307 307 307 308 308 308 309 308 310 310 308 309 308 309 308 309 308 307 308 307 307 306 307 308 308 308 308 307 305 304 304 303 300 299 299 302 302 300 300 300 301 300 299 298 298 298 301 307 305 305 302 300 298 298
323 324 323 322 319 317 317 317 317 317 316 315 315 314 313 313 312 312 311 310 310 310 309 309 309 308 307 307 307 306 307 306 306 307 308 307 306 310 309 309 308 307 307 307 307 309 306 306 307 306 306 306 305 306 306 307 308 307 305 306 304 304 304 301 299 299 299 303 301 302 301 300 299 299 298 298 298 300 299 301 304 302 300 298 297
321 322 323 321 318 317 317 317 317 316 315 315 315 315 313 312 312 311 311 310 310 309 308 308 308 307 307 307 307 305 306 305 306 307 306 306 307 307 309 308 308 308 307 307 308 306 306 306 306 307 309 307 307 306 306 306 307 307 306 306 305 305 305 304 302 300 300 301 300 300 301 302 300 301 300 300 300 302 302 301 303 303 302 300 299
322 320 318 319 318 316 316 316 316 316 315 315 315 314 314 313 312 311 311 310 310 308 307 307 307 306 307 306 306 306 306 307 306 306 306 306 307 308 307 307 308 308 308 308 307 307 307 307 306 307 308 308 307 306 307 308 307 306 306 306 306 307 305 304 304 301 300 301 301 301 301 301 302 303 302 303 303 302 302 302 302 303 302 303 301
320 319 319 318 319 318 317 316 315 315 314 315 315 314 313 313 312 312 311 309 309 308 308 306 306 306 307 306 305 305 306 307 306 306 306 307 308 308 307 307 307 307 308 307 310 307 307 307 308 308 308 308 307 308 308 308 308 308 306 305 306 306 307 306 305 303 301 301 302 303 301 302 303 303 303 302 301 303 303 302 304 304 304 304 304
319 318 318 318 318 318 318 318 317 314 315 315 315 314 313 313 312 312 311 309 308 309 310 307 308 306 305 305 305 305 307 306 306 307 308 308 308 307 307 307 307 307 307 308 308 307 307 308 308 308 308 309 308 308 308 308 308 308 307 307 307 306 305 305 305 303 302 301 302 303 302 302 301 302 303 301 301 302 303 302 302 303 302 303 303
318 318 318 318 318 318 318 318 317 317 315 315 315 314 313 312 312 312 311 309 309 309 308 308 308 306 306 305 306 307 307 307 306 307 308 308 308 308 307 307 307 307 306 308 307 307 307 307 307 308 309 309 309 308 308 307 309 308 309 308 308 306 305 304 304 304 303 302 302 301 301 302 301 301 303 302 301 302 302 301 302 301 300 300 302
317 317 317 317 317 316 316 317 318 318 318 317 317 316 315 313 313 311 312 310 310 309 308 309 308 307 306 306 307 307 308 307 306 307 308 308 307 307 307 308 308 307 306 307 308 308 308 308 308 308 309 309 309 309 310 309 307 307 307 308 306 306 305 304 303 303 302 301 301 301 300 300 301 302 303 301 301 300 301 298 298 298 300 298 299
315 316 315 315 315 316 316 317 317 318 318 319 318 317 316 316 315 313 312 311 312 311 309 308 308 308 307 306 306 308 309 309 309 308 308 308 307 307 307 309 308 307 306 307 309 309 309 309 309 309 312 316 311 311 311 311 311 309 306 306 305 305 303 302 304 302 301 301 301 299 298 299 298 299 300 299 297 298 299 297 296 297 297 297 299
316 316 315 315 315 316 316 316 316 315 317 317 317 317 316 316 315 314 313 312 310 311 309 309 307 308 307 306 306 308 309 310 311 307 307 310 308 310 309 309 308 308 310 309 309 310 311 310 312 317 315 313 309 305 304 306 310 312 310 307 307 306 306 303 302 302 302 301 300 299 298 298 296 296 296 299 298 297 296 295 295 295 292 295 295
314 314 314 315 316 316 316 316 315 315 315 315 315 316 316 316 315 315 314 314 312 310 311 310 307 307 308 307 307 308 309 310 305 300 300 304 310 310 309 309 308 311 311 311 311 311 309 309 309 313 312 311 305 300 300 300 301 303 305 308 310 308 307 304 303 303 303 303 300 299 297 297 298 298 296 298 296 295 294 294 295 294 293 292 292
307 310 313 314 314 314 313 314 314 314 315 315 315 315 315 315 314 314 313 315 314 313 313 310 309 307 307 306 307 309 309 307 301 299 300 300 306 311 310 310 311 311 311 312 312 311 311 310 308 309 308 307 305 301 299 297 296 296 295 297 297 297 302 307 306 304 304 304 303 301 298 299 298 297 297 295 296 296 295 295 293 293 291 291 291
299 299 300 301 302 305 310 314 313 313 312 313 313 313 312 313 313 314 313 313 312 313 311 311 311 309 308 307 306 308 308 305 301 298 298 299 301 308 312 311 311 311 312 312 311 311 311 310 310 310 312 315 311 303 301 298 296 294 295 294 294 294 294 297 300 307 306 305 304 301 300 299 300 299 299 297 296 296 294 294 292 292 292 291 290
298 298 298 298 299 300 301 303 305 308 310 310 311 311 312 312 312 311 310 311 310 311 309 311 309 309 308 307 306 305 305 303 298 298 297 297 297 302 313 312 312 312 313 313 312 312 312 311 311 310 309 311 309 305 302 300 298 296 296 297 296 295 294 294 295 298 302 306 304 303 300 301 300 297 299 297 296 294 292 292 292 290 290 291 291
298 298 298 298 298 299 299 300 300 302 304 304 304 304 306 308 309 309 308 310 310 311 310 310 309 308 309 308 307 308 308 303 296 296 297 296 296 296 307 312 312 312 313 313 313 313 313 313 312 311 310 310 311 308 305 301 299 299 297 298 297 298 297 297 298 299 298 301 303 302 301 300 300 299 298 296 296 295 292 291 291 290 290 289 289
297 297 297 297 298 298 298 298 298 298 299 299 299 300 301 302 303 305 306 306 307 307 308 309 309 312 312 310 309 309 311 302 296 295 296 296 297 304 307 310 311 311 311 312 312 313 313 313 311 311 309 309 307 302 303 304 303 302 301 299 296 294 293 293 291 293 299 301 301 301 299 298 296 297 296 295 294 294 294 293 291 289 288 286 289
297 298 297 297 298 298 298 298 298 297 297 297 297 297 298 298 298 301 300 300 302 304 306 307 307 307 308 310 310 310 309 305 297 295 295 295 298 307 310 311 312 311 310 310 310 311 313 313 312 311 310 308 303 298 299 301 305 304 303 299 296 294 293 294 292 292 294 294 294 294 294 293 293 293 293 293 293 292 291 291 289 286 287 286 287
297 297 297 297 297 297 298 298 297 297 296 296 296 296 296 296 297 298 297 298 298 300 303 304 306 306 306 306 307 308 309 307 299 296 295 294 299 308 308 310 309 309 308 309 309 309 310 311 313 311 310 308 299 295 296 302 305 304 301 298 296 294 293 294 294 292 292 291 291 291 291 291 291 292 292 292 293 293 288 288 289 287 288 286 286
296 296 295 296 296 297 297 297 297 297 297 296 296 296 295 296 296 296 296 296 296 297 299 300 300 300 303 304 309 309 309 307 301 297 296 295 298 304 305 307 307 305 307 307 306 306 303 304 307 309 310 304 295 294 295 302 308 305 302 299 297 295 294 293 292 291 290 291 290 290 289 292 292 291 291 292 293 294 291 292 289 289 286 287 286
296 297 297 297 298 298 297 297 298 297 297 296 296 296 296 295 295 296 295 296 296 296 297 296 297 298 298 301 303 305 307 309 308 301 298 296 296 305 305 305 305 305 305 307 308 305 301 300 300 297 299 298 294 294 295 298 307 306 303 300 298 297 295 293 293 292 293 294 292 292 291 289 290 290 289 290 292 295 291 291 291 290 289 286 287
296 296 297 297 298 298 298 297 297 298 298 297 297 296 296 296 296 296 296 296 296 296 296 297 297 297 298 299 300 301 305 307 308 301 300 299 296 298 306 306 306 306 305 305 305 306 303 299 296 294 295 294 293 293 294 296 300 305 303 301 300 299 296 294 294 295 295 295 294 293 293 292 290 290 290 289 290 289 290 290 289 288 289 287 285
296 296 296 296 296 296 296 296 297 298 297 297 295 295 295 296 296 295 294 294 293 293 293 294 295 295 296 297 298 298 301 303 305 303 301 300 298 296 303 306 307 307 305 305 305 304 304 302 298 294 292 293 293 293 294 294 297 303 303 297 294 293 297 297 297 296 295 295 294 292 291 290 290 292 292 292 291 292 289 288 289 289 290 289 287
295 295 295 295 295 295 295 294 295 296 295 295 294 293 293 293 293 293 293 293 292 292 292 292 292 292 293 294 294 296 297 300 298 300 299 298 299 297 296 301 299 306 307 306 305 306 303 299 297 294 291 292 293 293 294 294 296 299 295 293 292 292 295 298 296 295 293 293 292 291 290 290 290 289 290 291 291 291 290 290 289 289 290 290 288
294 294 294 294 293 294 294 294 294 293 294 293 293 292 292 292 293 293 292 292 291 291 291 291 291 291 291 291 293 294 296 297 297 296 297 297 297 297 296 295 297 304 307 308 307 304 299 297 295 291 291 291 291 291 291 293 296 291 292 292 292 294 298 296 295 295 291 291 291 291 290 289 290 290 290 291 290 291 290 289 288 287 287 287 286
293 292 292 292 292 292 292 292 292 293 293 292 292 292 292 292 292 292 291 291 291 290 290 291 290 289 289 290 290 292 294 296 297 297 296 297 297 296 295 294 293 294 303 307 305 302 297 294 292 290 291 291 290 290 290 291 290 292 292 292 295 298 297 296 295 292 291 289 289 289 289 290 289 290 290 290 290 290 289 288 287 286 285 285 286
291 291 290 290 290 291 290 290 291 291 291 292 292 291 291 291 291 291 290 290 290 290 289 289 289 289 288 289 289 291 293 294 295 297 297 298 297 296 293 293 294 294 296 303 298 296 293 292 290 290 291 291 293 295 294 293 291 292 292 295 298 296 295 294 292 292 290 290 290 290 290 290 290 289 289 289 289 288 287 286 285 285 285 285 285
290 290 289 290 289 289 290 290 289 290 289 290 290 291 290 290 290 289 290 289 289 288 289 288 288 288 288 289 289 290 291 292 294 295 297 298 297 296 295 295 293 293 296 299 297 295 292 292 291 291 293 292 294 294 294 291 291 292 293 294 294 294 293 294 293 292 291 290 290 290 290 289 289 288 287 288 287 286 286 286 284 284 284 283 283
290 289 290 289 289 289 289 288 289 288 288 288 289 289 289 289 289 289 289 289 288 288 287 287 288 288 288 288 289 289 290 291 292 293 296 298 298 296 294 295 296 296 298 300 297 295 293 291 291 293 292 293 292 291 291 290 289 290 291 290 290 291 292 292 292 291 291 290 289 288 287 288 287 287 286 287 285 286 285 285 285 285 283 283 282
289 289 290 290 290 290 290 289 289 288 289 289 288 288 289 290 290 289 289 289 289 289 288 288 288 288 288 288 288 288 288 289 292 292 292 291 292 296 296 296 297 295 296 293 292 292 292 292 290 290 289 287 287 288 289 289 287 289 290 289 289 290 290 290 290 289 289 288 288 288 286 286 285 286 286 285 286 285 284 284 283 285 282 282 282
288 288 288 289 289 289 290 289 289 289 289 289 290 290 289 291 290 289 289 291 290 290 289 287 289 288 288 288 288 288 288 291 291 290 291 290 291 291 293 294 294 295 291 290 291 289 289 290 289 288 287 287 286 286 285 286 286 286 285 287 287 288 288 288 288 287 286 287 286 286 285 285 284 284 285 285 284 284 284 286 284 283 283 282 282
287 286 287 288 288 289 289 289 290 290 291 291 291 290 290 291 290 290 290 290 290 289 289 289 289 289 289 288 289 290 289 289 289 290 290 290 290 291 292 292 292 290 290 290 288 287 287 288 287 286 286 287 286 285 285 286 286 286 286 286 286 287 287 287 286 285 285 285 285 284 283 285 284 283 284 283 284 283 282 282 281 282 283 282 281
287 288 289 289 289 289 289 290 291 291 290 290 289 289 288 288 290 291 290 290 290 289 289 289 289 289 289 289 289 288 289 290 290 290 290 290 290 291 292 290 289 289 289 289 288 287 286 286 286 287 287 287 287 287 287 287 286 286 286 286 286 286 287 286 285 286 285 285 284 283 283 284 283 282 283 281 280 281 282 281 281 281 281 281 282
286 286 288 289 289 289 290 290 290 290 289 288 288 288 287 287 288 289 290 290 290 290 289 289 289 289 289 289 289 288 289 289 289 289 289 289 289 290 291 289 289 289 290 289 288 287 287 287 287 288 288 288 288 288 288 288 287 287 286 286 286 286 286 286 286 286 285 284 283 283 283 282 281 280 280 280 280 278 278 278 281 281 281 281 281
287 286 287 289 290 290 290 291 290 290 289 288 288 287 287 288 288 288 289 289 289 289 289 289 289 289 289 289 289 289 289 289 289 289 289 289 289 290 289 287 289 289 290 289 288 288 288 289 289 289 289 288 288 288 288 287 287 287 286 286 286 286 286 286 287 286 284 283 283 282 281 280 280 280 278 277 278 279 279 280 281 279 280 280 280
287 288 287 288 289 289 290 290 290 290 290 289 287 286 287 288 289 288 288 287 285 285 286 288 289 289 289 288 289 288 288 288 288 288 289 289 289 288 288 287 286 287 289 289 290 289 288 288 288 288 288 288 288 288 288 288 287 287 286 286 285 286 286 286 286 285 285 283 283 282 280 280 279 279 279 279 279 279 278 278 278 279 280 280 282
287 289 288 288 288 289 289 290 290 290 290 289 288 286 286 286 287 287 286 285 286 286 287 287 288 288 289 289 289 288 287 288 287 287 288 289 288 288 286 285 285 285 286 287 288 289 289 289 289 289 289 288 288 288 288 288 288 287 286 286 286 286 286 286 285 285 283 283 282 281 281 280 280 280 280 280 280 279 277 277 278 278 279 281 283
286 286 287 289 290 289 289 289 289 289 288 287 287 287 286 286 286 287 287 287 287 288 288 287 287 288 289 287 286 286 287 288 287 287 287 287 288 288 287 286 286 286 286 286 288 289 289 289 290 290 289 288 288 289 288 288 288 287 286 287 287 286 286 286 285 283 282 282 281 281 281 280 280 281 281 280 277 277 276 277 277 279 282 284 284
287 286 287 289 289 289 288 287 286 286 286 286 286 285 285 286 287 287 286 287 287 287 287 288 288 287 287 287 291 287 285 286 287 288 287 287 286 287 287 287 288 288 287 286 286 287 288 290 291 290 290 290 289 289 288 287 287 287 286 287 287 286 287 285 284 284 283 283 281 280 280 279 279 279 280 280 278 276 277 277 279 282 284 284 284
285 287 288 287 287 289 287 286 286 287 287 286 284 285 285 286 286 286 286 286 286 286 286 287 288 287 287 288 287 288 286 284 285 286 287 287 287 288 288 288 288 288 288 288 288 288 289 289 290 290 290 290 289 288 287 286 287 286 287 287 286 286 286 285 285 284 283 282 279 278 278 278 277 277 279 278 278 277 278 280 282 284 284 283 281
285 285 285 287 287 287 287 287 287 287 286 286 285 284 284 284 284 284 285 285 284 285 286 286 285 286 287 287 288 287 285 285 285 285 286 287 287 287 288 287 287 288 288 289 289 290 290 289 289 289 289 289 289 288 287 287 287 287 287 287 286 285 285 285 284 284 283 281 280 279 278 277 276 276 275 277 278 277 277 280 284 284 284 283 282
284 285 287 286 286 287 288 288 287 287 285 284 284 284 284 284 284 284 283 283 283 283 283 284 285 285 285 285 287 287 287 287 286 286 286 286 286 287 287 287 287 288 287 288 289 289 289 289 288 288 287 287 287 287 287 287 286 286 285 285 285 284 284 283 283 282 282 282 280 278 277 277 278 279 280 279 282 279 278 281 284 284 284 284 284
283 286 285 285 284 285 287 287 287 286 285 284 284 284 285 285 284 283 283 282 282 282 282 284 286 286 287 287 287 288 289 287 287 287 287 287 287 287 287 287 288 288 288 287 288 288 288 288 288 288 287 287 287 287 286 286 285 285 285 285 285 284 283 282 282 281 281 280 279 279 277 279 279 279 279 282 275 276 278 281 283 284 284 284 284
284 284 284 284 285 286 286 287 287 286 285 285 284 284 284 284 283 283 282 281 282 282 281 283 285 286 286 286 286 286 286 286 286 286 287 286 286 286 287 287 287 288 288 288 287 287 287 287 287 287 287 287 286 286 286 286 286 285 285 284 284 283 282 281 281 280 279 280 279 278 278 278 278 275 275 277 277 278 279 280 282 283 284 284 284
285 285 283 284 284 285 286 287 287 286 286 286 286 285 285 285 284 283 282 282 282 281 282 284 285 285 285 286 286 286 285 284 283 285 286 286 286 286 286 286 287 287 287 287 287 287 286 286 286 285 286 286 286 286 285 285 286 285 284 283 282 282 281 280 280 280 280 280 278 277 275 276 276 276 279 279 277 279 281 282 284 284 284 284 284
284 284 283 283 283 284 286 285 284 286 286 286 286 286 286 286 284 283 282 281 282 282 282 285 286 286 286 286 286 286 285 285 285 286 286 286 286 286 286 286 286 286 286 286 286 287 286 286 285 285 284 284 285 284 284 284 284 284 284 283 282 281 280 279 278 278 279 279 278 276 275 275 275 276 276 277 279 279 280 281 282 284 284 284 283
283 283 283 284 283 283 284 283 283 284 284 284 284 286 287 287 286 285 283 282 282 282 282 285 286 286 285 284 284 284 283 284 285 285 286 286 286 286 286 286 286 286 286 286 286 286 286 285 285 284 283 283 283 282 282 281 281 281 280 280 279 278 276 276 276 278 277 277 276 276 276 275 276 278 280 277 278 280 281 282 283 283 283 284 284
283 282 284 284 284 283 283 282 282 282 282 282 283 284 286 286 286 285 285 284 282 282 283 285 286 285 285 285 285 284 284 285 285 286 285 286 286 286 286 286 286 286 286 286 286 286 285 285 284 284 283 282 281 280 279 279 279 279 279 279 279 278 276 275 275 275 275 274 275 276 275 276 276 276 278 278 279 281 282 283 283 283 283 283 283
282 282 283 284 283 283 282 282 282 283 282 282 282 284 285 285 285 285 285 284 283 283 283 285 286 286 286 286 286 286 285 285 286 286 286 285 285 285 286 286 286 286 286 285 285 285 285 285 284 284 283 282 281 279 279 279 279 278 278 279 279 279 279 277 276 275 273 273 274 274 275 275 274 276 277 277 278 281 282 283 283 283 282 282 283
283 282 283 283 283 283 283 283 283 284 284 283 284 285 285 286 286 286 285 285 285 283 283 285 286 286 286 286 286 286 286 286 286 285 285 285 285 285 285 285 285 285 285 285 285 284 284 284 283 283 282 281 280 279 278 278 278 278 277 278 278 279 279 279 279 278 278 277 275 275 275 275 275 276 277 277 278 278 279 280 281 282 281 282 283
283 283 282 282 282 283 283 283 284 285 285 284 284 284 284 286 286 286 286 286 286 285 283 285 286 286 286 286 285 286 286 285 285 285 285 285 285 285 285 285 285 285 284 284 283 283 283 282 282 281 280 279 279 278 278 278 277 277 277 277 277 278 278 278 279 279 279 278 278 277 277 276 275 274 275 276 276 276 277 280 282 283 282 282 284
284 283 283 282 282 282 282 282 282 283 284 284 284 285 285 285 285 286 286 286 286 285 284 285 286 286 286 286 285 285 285 285 285 285 285 285 285 285 285 285 284 284 283 283 282 282 281 280 279 279 279 279 278 277 276 276 276 277 277 277 277 277 278 278 279 279 279 279 278 278 278 277 277 277 276 276 275 276 279 280 281 281 282 283 284
Wind_Speed
8 7 6 6 8 7 7 6 6 6 5 6 7 6 5 5 5 4 4 4 4 4 4 4 4 4 4 4 4 4 5 4 4 4 5 5 4 5 4 6 6 4 4 4 4 4 5 5 4 3 3 6 6 6 6 5 4 6 7 7 6 5 7 5 6 4 0 1 4 5 4 4 4 5 4 5 4 3 4 2 3 3 3 4 4
3 7 5 7 7 8 7 6 6 6 7 5 6 5 5 5 5 4 5 4 4 4 4 3 3 4 4 3 4 4 4 4 4 4 5 5 4 4 4 5 5 4 4 5 4 4 4 5 4 3 3 5 4 5 6 6 7 7 6 8 7 6 5 5 4 6 4 0 2 0 3 3 5 4 6 5 6 3 2 3 3 3 3 3 3
9 8 3 7 7 7 8 7 7 7 8 5 6 6 5 4 4 6 4 4 3 5 4 4 4 3 3 3 3 4 4 4 4 4 4 5 5 4 4 5 6 6 5 5 5 4 5 4 4 3 4 6 5 4 3 4 4 6 5 5 7 5 3 4 5 4 6 4 3 4 4 4 6 6 6 5 2 2 3 4 5 4 4 4 4
7 8 11 12 7 4 8 8 9 9 8 6 7 5 5 4 4 5 4 4 4 4 4 4 4 4 3 2 2 3 3 3 3 3 5 5 5 5 4 4 5 5 6 6 5 5 6 5 4 5 5 6 4 5 4 5 5 5 5 3 5 5 4 4 5 5 3 5 3 6 4 5 5 5 3 3 2 3 3 2 2 3 4 4 4
9 9 9 9 6 9 9 2 7 7 7 6 7 6 6 5 4 5 4 4 4 4 3 4 4 4 4 4 3 3 4 4 4 3 3 4 5 4 4 4 4 5 6 6 6 6 5 5 5 5 6 7 4 5 5 6 5 5 4 3 3 3 3 4 4 3 5 6 4 4 2 3 3 2 2 4 2 1 2 3 1 1 1 1 2
10 10 10 9 7 8 6 4 8 3 3 6 8 7 7 6 5 5 5 5 4 4 5 4 5 5 4 4 4 4 3 4 4 5 4 4 4 4 4 4 5 5 5 5 5 5 5 5 5 6 6 7 6 5 5 5 5 6 6 4 4 3 4 3 3 4 6 7 6 5 2 4 3 3 3 4 5 2 3 2 3 3 1 3 3
10 10 10 11 10 10 8 9 9 7 3 1 1 2 5 5 5 6 4 5 4 4 3 5 4 6 5 4 4 4 4 4 4 4 4 5 5 5 5 5 5 4 5 5 4 4 4 4 4 4 6 6 7 6 5 5 5 6 6 6 5 5 4 4 4 5 4 4 2 2 3 2 2 3 2 2 3 3 5 3 1 2 2 3 5
8 8 9 8 9 8 6 6 8 10 9 7 4 4 3 3 4 4 3 4 4 5 4 5 6 5 6 5 5 4 5 5 4 4 4 5 5 5 5 5 5 5 5 5 5 5 5 4 4 4 4 4 5 5 6 6 4 5 4 4 5 6 5 4 4 4 4 3 2 3 1 2 0 0 1 2 3 1 2 3 4 1 3 3 2
7 6 6 7 5 5 5 5 2 0 5 9 6 3 3 4 4 4 4 4 5 5 5 5 6 5 5 6 5 4 6 6 5 5 5 5 5 5 5 5 5 5 4 4 3 4 4 4 4 4 4 6 8 8 7 7 6 5 4 4 4 4 4 4 6 5 3 3 2 1 1 1 0 1 2 1 2 5 0 2 2 1 1 2 1
8 6 7 6 4 5 5 4 4 3 3 6 5 5 4 4 3 2 4 5 5 5 6 4 5 6 6 5 6 5 6 5 8 11 9 7 5 5 5 4 5 5 5 4 4 4 4 4 4 7 8 9 9 9 8 8 7 7 7 5 5 4 5 5 4 5 5 4 4 4 3 2 0 1 2 1 1 1 4 3 2 1 1 3 1
6 6 7 5 5 5 5 4 3 3 4 5 5 6 5 4 3 3 2 0 3 3 4 5 4 5 6 6 6 6 6 6 12 13 12 12 8 6 6 5 5 5 6 7 6 5 4 4 4 5 5 6 4 6 7 8 8 6 4 2 2 5 6 5 5 6 6 6 5 4 5 4 1 1 3 4 1 3 3 4 5 4 4 3 2
9 8 7 6 6 6 4 4 4 5 5 5 5 5 4 4 5 5 3 4 2 2 1 2 3 4 3 4 6 7 7 9 12 14 14 14 11 7 5 5 5 6 6 7 6 6 6 5 4 4 4 4 4 3 3 4 5 6 6 6 4 3 2 5 5 4 4 4 5 6 6 6 4 4 3 3 4 4 3 4 3 4 2 1 1
11 10 9 10 9 7 6 6 6 5 4 5 5 4 4 3 4 5 7 6 3 4 3 3 1 1 4 4 4 5 5 9 9 11 14 15 15 11 7 7 7 6 6 6 6 6 5 5 5 4 3 6 4 3 4 3 3 4 5 5 3 2 2 1 2 5 6 5 5 5 6 6 6 4 3 4 3 5 3 4 2 3 2 2 1
10 10 10 10 9 9 9 9 7 6 5 4 4 2 2 2 3 3 1 3 3 5 3 3 2 1 0 1 3 3 4 4 5 9 12 12 12 10 7 8 8 8 8 8 7 7 7 7 7 6 4 4 4 5 4 4 4 3 2 1 1 1 1 2 2 3 5 7 7 7 4 6 7 5 4 5 6 5 4 3 3 4 3 1 1
11 10 11 10 10 10 10 10 9 8 8 7 7 8 6 5 4 1 0 3 5 6 4 3 1 3 4 3 3 5 4 4 6 7 9 12 11 8 5 4 6 7 8 8 9 9 9 8 8 8 6 5 6 7 6 6 5 4 3 2 1 0 0 1 1 1 3 3 5 5 6 4 6 6 5 4 5 5 6 5 6 3 3 1 2
10 10 11 10 10 9 9 9 9 8 8 8 9 8 8 7 8 7 6 5 3 2 2 1 2 4 6 5 7 6 6 7 7 7 8 10 11 7 7 6 6 6 7 7 7 8 8 9 8 8 7 7 10 14 12 8 7 7 6 4 2 3 2 2 5 6 2 3 5 7 7 7 8 7 6 5 5 5 6 6 5 4 4 4 1
10 9 9 8 8 8 8 9 9 8 8 9 9 8 8 8 8 6 7 6 6 6 7 5 2 3 5 6 7 6 6 8 9 9 9 8 6 6 7 7 7 7 7 7 7 7 7 8 9 9 8 8 11 14 13 13 7 7 6 5 3 3 1 1 6 9 5 6 10 11 12 11 10 9 9 8 7 6 7 6 3 3 5 1 1
9 9 9 8 8 7 6 8 9 7 7 7 7 6 5 5 6 5 6 6 6 6 6 6 6 4 2 3 4 5 7 8 10 10 10 10 8 6 7 7 6 6 6 6 6 6 7 12 10 7 7 7 8 11 11 9 6 7 7 7 6 5 4 2 4 5 8 8 8 8 9 8 8 8 7 7 7 4 5 5 4 6 4 2 1
8 8 8 7 7 8 8 9 8 7 6 6 5 5 5 4 4 4 4 3 4 4 4 6 5 3 3 4 6 5 7 9 10 11 11 11 8 5 6 6 7 6 6 6 6 6 4 3 6 7 7 7 12 12 15 13 8 9 9 8 8 8 7 4 7 6 4 4 2 4 4 6 5 4 4 8 8 6 5 6 5 5 5 4 2
3 4 6 8 8 8 7 7 7 7 8 7 7 7 4 4 6 5 4 4 5 3 3 4 5 6 4 3 3 4 5 7 9 12 11 12 12 8 6 6 7 7 7 6 6 6 5 5 5 7 9 11 13 15 15 15 9 8 8 9 8 7 5 6 5 6 5 6 5 3 4 4 4 4 4 4 3 4 4 5 5 6 6 5 2
6 6 7 8 9 9 8 8 8 8 7 7 6 5 6 6 6 6 6 6 5 5 5 4 4 5 6 5 4 4 4 7 9 13 13 12 12 11 7 9 8 8 8 8 7 7 5 6 5 6 10 11 12 12 13 16 11 9 10 11 10 8 10 5 5 6 5 4 4 3 5 5 4 3 4 3 3 3 3 3 3 3 5 5 5
8 8 9 8 8 7 7 7 6 6 6 6 6 6 6 5 4 5 6 6 6 6 6 6 5 5 5 5 5 5 6 7 6 12 16 16 13 13 9 9 11 9 8 8 8 8 8 8 8 9 11 12 13 14 14 13 12 8 8 9 10 16 13 8 7 6 5 6 5 5 6 6 6 5 5 3 3 3 4 4 4 4 4 5 6
8 8 8 8 7 6 6 6 6 5 5 5 5 5 5 5 5 5 5 6 6 7 6 6 6 7 7 6 6 6 6 6 8 8 12 15 17 14 15 13 12 9 9 10 11 11 8 8 7 10 12 13 13 14 13 13 9 9 13 13 14 16 12 7 7 6 6 6 6 6 5 7 7 6 6 6 6 6 6 6 5 5 5 4 3
7 8 7 6 6 6 5 5 5 5 6 5 5 5 6 5 5 6 6 6 6 7 7 7 7 7 7 7 8 8 8 8 9 12 12 14 16 16 15 17 15 10 10 10 10 9 8 8 9 12 13 13 13 11 11 10 8 12 15 16 17 14 9 9 7 7 7 7 7 7 6 5 7 6 6 6 6 7 7 6 6 4 4 4 3
7 6 6 5 5 4 4 5 5 5 5 5 6 6 6 5 6 5 5 6 5 6 6 6 6 6 6 6 7 7 7 8 8 11 15 16 15 14 14 13 13 12 10 9 7 9 11 13 12 15 14 14 14 14 12 13 17 17 17 17 14 8 8 8 9 7 7 7 7 7 6 5 5 6 6 7 6 6 5 5 4 4 2 2 1
6 4 4 4 4 3 4 4 4 4 5 5 5 5 5 6 6 6 5 5 5 5 5 5 6 6 6 6 7 7 7 7 8 9 10 11 10 8 6 7 10 11 13 11 8 8 10 12 15 15 15 15 12 10 9 11 15 17 19 18 11 9 7 8 7 7 7 7 8 8 7 6 6 6 7 7 7 6 5 3 3 3 3 2 4
4 3 4 3 3 3 4 3 3 3 3 3 3 3 5 5 5 5 5 5 5 5 5 5 6 6 7 7 7 8 7 7 8 9 9 8 7 5 2 3 6 7 6 7 5 1 1 1 2 8 11 16 13 12 12 12 11 9 8 7 8 8 8 8 9 9 9 8 7 7 7 7 6 6 6 7 6 4 3 5 4 1 1 1 2
5 4 4 3 3 3 3 4 4 4 3 3 5 5 5 3 5 5 6 6 6 6 5 6 6 6 7 8 8 8 8 7 8 8 9 9 10 8 4 3 4 4 6 6 4 7 8 7 7 5 6 5 4 4 4 6 6 7 7 6 6 6 6 9 8 7 7 8 8 7 7 6 7 6 5 6 6 4 2 3 3 2 2 1 2
6 6 6 6 5 4 5 4 5 6 6 5 4 4 6 6 6 5 4 3 3 4 5 5 4 4 5 6 8 9 8 8 9 10 11 11 10 11 8 6 5 4 5 7 7 6 7 7 6 5 3 3 6 2 3 6 4 4 7 6 6 7 7 7 8 8 8 8 8 8 7 7 6 5 6 6 4 3 1 5 3 3 2 3 1
4 4 4 4 4 5 5 6 6 6 6 6 6 5 4 6 6 5 5 7 8 7 3 3 5 6 6 6 5 7 8 10 14 19 19 18 17 16 14 10 6 4 6 11 7 6 6 7 5 6 5 5 3 2 1 3 2 3 3 5 6 6 6 7 7 7 6 7 7 8 7 7 6 6 6 6 3 3 2 4 1 1 1 0 1
4 4 4 5 5 6 5 6 5 5 5 5 5 6 7 5 7 9 8 8 8 8 8 10 11 10 8 7 9 13 15 15 15 15 16 16 16 15 11 9 5 8 10 8 3 5 6 7 6 5 5 7 7 7 3 5 3 3 3 4 5 5 6 7 6 6 7 7 7 7 7 7 6 6 6 4 5 3 3 2 3 2 2 1 3
3 5 4 5 5 5 5 5 5 5 5 5 5 6 6 8 7 5 8 9 8 8 10 11 12 11 12 11 8 7 11 15 17 15 15 16 16 14 10 7 9 11 10 10 6 4 3 4 6 7 8 8 7 6 6 7 6 5 5 5 5 5 7 6 5 7 7 7 7 7 7 7 6 5 6 5 4 4 3 2 1 2 2 3 2
3 4 4 5 5 5 5 5 5 5 5 5 6 5 6 6 8 9 6 5 8 11 11 11 11 12 12 13 13 10 10 13 17 18 16 16 16 16 11 8 11 12 12 7 6 7 7 7 5 6 7 8 9 9 8 7 7 6 5 5 6 5 5 5 5 8 7 7 7 7 7 6 6 5 5 5 5 3 2 2 2 2 3 2 2
3 3 4 4 4 4 5 5 5 5 5 4 5 5 6 6 6 6 8 10 10 8 7 8 9 11 12 12 12 12 13 13 15 16 16 14 14 12 6 4 7 10 9 7 7 8 8 8 8 8 9 9 9 8 8 7 6 5 4 5 5 6 5 4 7 6 7 7 7 6 5 5 6 6 4 5 5 5 5 3 3 3 1 0 1
3 4 7 5 3 4 4 5 5 5 4 4 5 5 6 6 5 5 6 6 7 9 11 12 11 9 10 11 14 13 10 13 14 14 14 13 9 8 9 6 4 3 3 3 6 8 9 9 7 5 4 6 8 8 9 9 7 7 8 6 5 5 5 6 5 5 6 6 6 5 4 5 3 4 7 6 6 5 4 3 1 1 1 1 1
2 4 3 2 2 3 4 4 5 5 5 5 5 5 5 5 5 6 6 6 6 8 9 9 9 12 15 12 12 9 9 10 11 11 11 9 7 11 5 4 3 4 4 3 5 5 5 5 5 5 5 2 4 6 8 9 9 9 8 9 7 6 6 5 5 5 5 6 6 5 6 5 6 6 6 5 5 6 4 3 2 1 1 0 2
2 4 2 1 2 4 4 4 4 5 5 5 5 5 6 6 6 6 6 6 7 7 7 8 9 11 11 6 5 6 7 7 7 7 6 0 5 3 2 6 6 5 5 4 5 6 6 6 7 7 6 5 4 6 6 7 7 8 7 8 8 7 5 5 5 6 7 6 6 6 6 6 6 6 7 6 4 4 3 2 1 1 1 2 2
2 3 1 2 2 3 3 4 6 6 5 5 5 5 5 6 6 6 6 7 7 7 7 8 6 7 8 9 6 4 4 6 8 7 8 7 4 3 2 1 4 6 5 4 5 6 6 6 7 8 7 6 6 6 6 7 6 7 8 8 7 5 6 6 6 7 7 7 7 6 6 6 6 6 5 6 6 4 2 2 0 1 2 3 1
2 3 2 2 3 3 3 4 6 6 6 5 5 5 6 6 6 6 6 5 6 6 6 6 6 6 6 6 5 5 4 5 5 4 4 3 3 3 3 3 2 1 2 3 5 5 5 5 4 5 6 7 7 7 7 6 6 6 7 7 6 5 6 6 6 6 6 6 6 4 6 5 4 4 5 5 5 4 3 2 1 1 0 2 3
1 1 3 5 2 3 4 4 5 6 6 6 6 6 5 5 5 6 6 5 6 6 5 5 6 6 7 6 4 4 4 4 2 2 2 3 3 3 3 4 3 3 2 3 3 5 6 5 5 5 5 7 8 8 7 7 7 7 7 7 7 6 6 6 6 6 6 6 6 5 5 5 5 3 3 4 5 5 4 1 1 0 1 1 3
2 1 2 3 5 4 5 5 5 5 5 5 6 6 5 5 5 5 4 4 4 3 4 5 5 6 6 8 7 1 1 1 1 2 3 2 3 3 4 4 4 3 3 3 4 5 5 7 7 7 7 7 7 7 7 8 7 6 6 6 6 6 6 6 6 6 6 6 6 5 5 5 5 6 5 5 2 2 1 1 0 1 2 2 2
2 0 2 3 3 4 5 5 5 5 5 5 5 5 4 4 3 3 3 2 4 4 4 5 5 5 8 14 8 5 2 1 2 3 3 3 3 3 2 2 4 4 6 4 4 5 6 6 6 7 8 8 8 8 8 7 7 6 6 6 6 6 6 6 6 6 6 6 5 5 4 5 6 5 2 3 2 1 2 1 1 1 2 2 3
2 1 3 2 2 3 4 5 5 5 5 5 5 5 3 1 1 2 3 5 5 5 4 5 5 5 6 9 9 8 4 4 3 4 4 3 4 4 4 5 4 4 6 5 5 5 5 6 8 7 7 7 6 6 7 7 7 7 6 6 6 7 7 6 6 6 6 6 5 4 4 4 3 3 2 2 2 3 2 1 1 1 2 2 3
2 1 1 1 1 2 3 4 5 5 5 5 5 5 5 5 6 5 5 5 4 4 4 4 4 6 6 6 6 6 5 5 5 4 4 4 5 4 4 4 5 6 7 7 7 7 7 8 8 8 8 8 7 8 7 6 7 8 7 7 7 7 6 6 6 6 6 6 6 5 4 3 2 2 2 2 3 4 4 4 4 4 4 3 2
1 0 0 1 2 2 4 3 3 4 5 5 5 6 5 6 6 5 4 4 5 4 4 4 5 5 6 6 6 5 5 5 5 5 6 5 5 5 5 6 6 7 7 7 7 8 9 9 9 9 9 8 8 8 7 6 5 4 4 7 8 7 6 6 5 5 5 7 6 6 4 4 3 2 2 2 3 3 3 2 2 3 4 3 2
2 1 0 0 1 2 3 3 3 4 4 5 5 5 5 4 4 4 3 3 3 3 4 5 5 6 6 6 6 6 6 6 6 6 7 6 6 6 6 7 7 8 8 8 8 10 9 8 8 9 9 8 8 7 7 6 6 6 6 6 6 6 4 4 3 4 5 5 6 6 6 4 2 3 3 2 2 2 2 3 2 2 2 3 2
4 1 0 0 1 1 2 2 3 4 4 5 4 5 4 3 3 4 3 3 4 4 5 5 5 5 5 6 6 6 6 7 7 7 7 7 7 7 6 7 8 9 9 10 10 9 9 8 8 8 8 8 8 7 7 6 6 5 5 5 4 4 4 4 4 4 4 4 5 6 5 5 2 1 2 1 2 3 3 2 3 3 3 2 1
3 2 0 0 1 2 2 2 3 3 4 3 3 3 4 3 4 4 4 3 4 5 5 5 5 5 5 6 6 6 6 7 7 7 7 8 7 7 8 8 9 8 9 9 9 8 8 7 7 7 7 7 7 6 5 4 4 4 4 3 4 4 5 5 4 3 3 3 4 5 5 5 3 1 1 2 2 1 3 3 3 2 3 3 2
3 3 1 1 1 2 2 2 3 3 3 3 4 4 4 4 3 3 4 4 4 4 4 5 4 5 5 5 5 6 6 7 7 7 7 6 7 7 8 8 8 8 8 8 8 8 7 6 6 6 6 6 6 6 5 4 4 4 4 4 5 7 6 5 3 3 3 3 3 3 3 3 3 2 1 1 1 1 1 1 2 2 3 3 2
4 3 2 1 1 1 2 3 3 3 4 4 4 4 4 4 4 4 4 4 4 4 5 4 4 5 5 5 5 6 6 6 6 6 6 6 6 6 7 8 8 8 8 8 7 6 6 6 6 6 6 6 6 5 5 5 4 4 4 4 5 5 4 4 4 3 3 1 2 2 3 3 2 1 1 0 1 2 2 2 3 3 1 3 4
5 5 2 2 2 2 3 4 3 3 4 4 4 4 4 4 4 4 4 4 4 4 4 4 4 5 5 5 5 5 6 5 5 5 6 6 6 6 6 7 7 8 7 7 6 6 6 6 6 6 6 6 6 5 5 5 4 4 5 5 5 4 3 2 3 3 3 1 0 0 1 1 2 1 2 2 3 3 4 2 2 2 1 2 3
Wind_Direction
145 143 132 125 125 126 129 125 117 114 114 122 124 128 130 130 133 136 115 124 127 129 136 136 128 126 123 126 135 138 128 133 133 126 122 128 127 128 127 119 122 129 117 91 87 96 99 104 102 105 126 109 127 129 127 137 132 137 145 139 140 158 133 126 134 147 180 216 170 187 198 151 188 201 201 233 245 212 217 218 191 188 182 189 216
98 133 127 130 129 127 122 115 112 110 114 117 121 130 136 137 136 125 132 151 138 144 147 147 135 135 134 129 141 144 143 145 148 128 126 128 135 137 134 122 124 136 121 115 91 96 112 109 106 95 97 102 99 109 133 130 123 118 136 145 149 164 159 115 156 143 177 242 189 15 176 187 195 195 190 206 236 203 189 224 193 196 199 195 211
21 7 85 125 128 125 123 123 122 122 120 126 131 139 140 138 142 138 145 155 158 151 160 154 152 142 138 136 140 150 156 157 158 137 143 146 153 161 150 138 143 144 136 136 130 125 106 114 122 111 97 79 70 73 78 94 107 118 128 133 144 164 188 156 130 145 159 199 197 172 193 195 200 214 204 209 198 91 154 206 201 190 207 190 207
77 58 24 19 15 98 129 136 133 136 135 142 142 146 144 144 145 142 156 151 163 181 157 154 150 153 162 159 172 165 160 167 170 159 157 161 162 173 165 156 157 157 151 154 153 139 136 122 129 115 101 91 90 95 102 108 103 106 114 131 146 167 170 156 153 135 166 155 228 193 201 181 240 249 208 182 131 190 190 152 130 192 206 196 203
114 106 105 97 64 18 2 19 131 141 140 145 147 148 148 146 149 157 156 166 172 171 162 147 152 165 175 189 195 181 186 178 169 173 170 175 174 175 177 171 170 167 165 166 165 151 149 143 152 124 113 110 109 108 118 110 120 115 120 140 147 152 151 163 156 123 136 174 208 237 197 228 240 261 163 166 110 133 89 99 104 151 175 225 198
129 124 123 118 116 113 97 14 354 359 142 154 156 157 153 150 156 169 168 172 177 176 153 171 171 185 193 195 190 195 202 181 171 180 183 182 181 179 181 182 176 171 171 172 168 164 157 161 161 142 131 132 146 144 131 130 125 124 131 138 133 115 126 140 145 133 159 183 181 218 234 212 246 241 207 173 146 119 97 53 49 34 56 66 26
126 127 130 130 135 142 153 160 174 185 211 148 64 156 154 158 159 174 186 169 177 192 156 172 199 179 195 192 187 187 202 195 181 177 173 179 185 178 183 180 176 174 176 176 181 177 165 169 174 164 157 155 154 158 151 144 138 139 145 147 151 125 116 125 134 145 153 166 221 211 233 271 191 253 347 103 138 151 154 107 82 340 27 68 33
119 125 130 130 133 137 145 171 180 173 158 140 172 227 187 170 184 179 162 174 186 204 177 178 193 182 183 192 194 180 187 199 195 187 173 175 177 180 179 173 179 187 183 190 183 182 184 184 181 182 165 164 155 163 150 157 148 156 176 144 143 127 136 140 124 124 134 142 159 202 234 233 328 5 349 54 95 36 68 135 152 70 9 5 47
67 89 99 110 126 133 138 144 141 281 158 151 163 210 206 193 194 188 185 190 199 202 196 171 164 179 189 189 190 194 185 198 197 187 184 189 183 179 182 177 182 185 191 205 207 193 189 187 182 184 180 175 172 165 170 156 151 165 208 159 145 136 137 139 140 132 117 117 102 38 64 67 4 127 128 91 167 187 104 94 124 203 235 82 58
110 101 99 107 106 88 75 61 62 68 92 100 142 199 177 156 149 183 199 197 197 194 183 182 171 174 179 198 195 193 205 200 207 198 184 184 193 191 183 186 177 176 177 186 201 205 187 187 195 188 185 174 170 164 154 154 166 166 179 179 161 152 162 157 162 156 146 160 182 145 119 184 277 156 142 188 150 103 76 73 90 306 69 35 340
66 73 76 76 84 93 99 101 93 68 84 97 92 85 69 52 55 71 43 156 204 224 177 171 182 196 178 179 195 208 209 212 210 203 198 190 187 192 189 194 180 175 179 178 186 196 200 193 187 188 178 161 149 144 142 137 128 136 145 159 167 167 160 165 187 169 170 181 176 158 162 178 204 190 140 137 83 121 131 124 112 70 75 57 339
76 74 80 84 82 76 66 58 62 58 54 58 72 68 39 52 62 7 3 42 27 108 146 203 185 186 183 182 193 206 217 224 214 206 201 199 192 192 193 187 191 193 186 188 189 184 189 189 197 179 176 171 149 130 100 87 106 118 125 125 116 90 168 168 172 195 192 173 175 182 152 170 167 147 154 119 123 80 79 92 91 109 101 93 180
71 66 62 60 56 55 59 70 65 49 38 24 14 35 80 66 23 29 353 334 8 62 71 67 54 109 156 182 213 224 223 232 221 220 215 204 200 190 197 188 189 202 197 194 190 188 186 185 194 208 193 166 151 150 140 115 82 98 110 105 88 111 113 185 195 180 170 167 177 182 178 162 154 192 191 158 141 117 103 75 85 101 132 147 223
64 60 54 51 48 47 48 49 52 51 51 56 67 64 70 81 82 71 42 292 336 335 18 79 54 18 360 211 233 247 245 266 234 218 225 231 226 207 195 196 197 198 197 192 189 191 189 187 192 201 202 176 166 164 154 153 146 128 125 131 140 51 84 139 123 158 183 183 173 187 209 160 163 168 172 140 122 144 137 157 152 139 165 170 209
54 51 50 46 44 43 47 47 41 37 39 41 40 41 42 58 86 121 251 326 345 314 325 313 60 41 346 326 318 293 278 247 219 226 224 222 231 246 266 240 210 205 205 196 192 192 192 194 192 196 189 188 190 177 167 166 157 157 157 174 154 62 12 352 334 154 147 167 172 155 146 145 135 143 156 161 150 164 162 168 177 165 138 5 38
49 46 48 46 46 43 46 46 42 35 33 33 36 31 25 27 20 4 8 349 332 315 299 215 211 217 228 242 256 258 269 274 238 226 223 225 210 206 228 239 233 226 213 204 201 200 196 192 192 198 194 194 203 189 180 163 164 166 170 164 96 43 29 330 322 307 285 161 148 141 142 144 143 147 154 144 114 106 87 78 71 58 71 56 87
42 44 47 43 45 46 43 45 43 34 30 32 30 25 22 12 8 4 9 358 353 352 338 325 288 235 229 224 232 256 261 256 238 224 218 216 202 214 211 215 217 220 219 214 207 201 199 196 195 199 200 205 204 191 178 162 169 171 167 148 129 127 54 334 34 47 74 115 120 124 131 138 143 143 138 137 131 126 104 95 105 93 84 79 332
36 40 42 41 40 42 47 53 48 35 31 32 24 21 20 14 13 4 11 357 353 341 330 333 332 328 278 258 254 255 261 258 240 232 219 210 201 195 212 211 222 218 223 217 214 220 210 204 199 199 206 213 185 182 184 171 173 175 156 153 155 153 179 171 78 55 60 65 77 102 124 128 115 108 105 104 114 126 111 138 172 108 110 141 164
28 31 30 31 36 37 34 35 35 27 26 21 24 20 12 5 351 3 9 6 347 325 328 330 328 320 287 266 269 264 269 277 263 243 237 221 212 218 208 204 201 219 209 217 218 219 233 216 207 218 218 183 177 194 190 188 181 178 176 161 171 181 181 168 133 120 116 109 92 102 75 73 85 96 98 99 92 87 111 138 141 118 139 155 153
58 53 38 27 22 22 25 27 21 19 12 5 5 5 1 7 3 0 356 357 347 346 341 345 338 327 314 283 270 249 261 272 274 262 237 227 219 216 207 198 212 220 220 214 212 217 206 205 207 208 209 193 200 194 193 187 180 180 168 173 161 179 162 168 160 143 160 161 160 126 124 113 103 95 94 95 107 111 112 130 144 132 134 154 149
34 41 43 43 37 28 25 25 21 17 13 5 356 358 2 357 352 357 350 345 350 348 347 341 340 334 332 331 319 302 282 284 290 285 275 252 227 211 215 215 218 213 217 217 220 223 216 214 216 213 198 195 197 195 191 193 184 173 177 171 172 156 145 168 174 186 157 137 130 119 91 84 84 91 102 116 113 107 103 79 84 128 130 117 96
50 48 45 41 37 36 31 25 30 25 18 15 11 2 349 345 346 344 342 344 345 340 337 341 346 346 347 348 352 342 328 322 305 307 303 292 271 219 222 227 216 209 215 221 226 231 222 212 212 206 191 184 187 188 183 185 179 163 175 159 147 146 160 165 150 143 129 128 111 84 92 99 105 112 116 98 83 87 97 111 107 84 78 113 126
51 50 45 38 29 27 24 26 24 20 19 16 22 11 355 356 348 352 358 358 355 347 344 351 356 351 348 345 343 339 338 340 333 320 306 296 285 261 231 235 227 214 213 220 220 223 218 211 211 192 185 180 181 182 181 178 168 165 166 157 157 155 150 140 136 134 131 125 116 116 118 123 112 113 111 107 101 94 83 78 73 73 63 57 83
45 44 39 33 28 22 20 17 16 15 15 15 17 14 1 358 360 4 4 8 3 359 348 352 353 351 345 334 335 333 332 333 328 323 315 305 295 280 256 239 234 218 220 224 223 212 197 202 193 182 178 176 171 166 164 164 164 160 153 149 146 149 148 142 140 150 143 126 119 117 112 116 112 104 94 92 91 83 76 66 64 70 83 69 55
46 40 31 25 20 16 21 19 16 15 14 18 14 5 358 357 1 355 7 5 3 359 341 345 344 331 331 326 319 319 322 325 321 319 316 317 310 293 274 262 254 250 248 248 223 207 201 189 170 171 171 159 150 142 145 154 157 155 152 150 149 140 146 148 150 148 135 130 128 122 122 119 115 118 115 104 97 87 77 54 53 43 43 81 115
43 34 25 21 10 16 33 19 16 18 19 16 15 6 1 354 356 348 359 354 355 352 342 346 340 336 329 323 320 314 316 316 313 311 315 314 319 333 324 278 256 236 236 259 265 219 188 178 174 169 162 154 148 153 150 154 153 152 151 150 153 161 158 147 147 141 137 135 128 127 129 122 109 110 103 97 90 98 108 95 83 33 32 51 31
59 44 31 15 28 37 37 22 16 17 18 8 8 4 348 350 349 345 346 344 343 344 345 345 339 336 332 327 320 317 313 317 312 309 306 309 307 317 327 253 239 237 237 243 249 180 131 133 214 192 176 174 165 154 143 145 141 144 155 162 153 153 157 156 156 144 140 129 122 115 116 115 114 98 93 101 106 124 138 136 122 115 39 55 78
35 25 23 22 29 24 24 10 11 356 355 360 353 340 334 335 344 333 333 332 335 334 336 336 331 329 328 324 319 317 316 315 311 306 308 312 309 304 278 244 231 212 225 230 137 138 139 114 89 19 3 17 57 113 126 141 145 145 148 148 138 127 118 106 96 111 115 120 118 118 115 116 105 113 112 105 116 133 132 109 104 59 38 59 49
16 7 3 359 357 358 1 356 345 346 339 341 329 315 313 324 319 310 298 287 301 301 308 298 292 300 305 306 311 308 309 309 299 294 293 293 293 296 297 271 252 224 217 156 117 115 123 123 101 90 67 18 340 320 153 136 143 147 136 127 127 128 131 134 130 128 132 124 125 122 117 105 108 106 110 105 114 106 61 91 65 80 11 71 54
358 346 345 351 339 343 340 338 339 338 332 325 325 321 293 287 290 295 300 305 309 303 273 268 286 295 298 282 258 268 284 283 289 296 295 296 294 284 269 265 258 221 152 151 141 138 153 152 150 147 140 110 89 349 353 46 69 79 64 92 106 107 109 112 115 125 117 113 118 113 116 114 115 119 107 116 105 59 34 90 99 114 91 51 26
329 319 326 328 321 316 325 328 322 322 321 321 322 317 315 309 288 287 282 285 293 300 311 305 300 292 285 293 292 282 281 284 287 288 291 293 288 284 272 250 198 148 144 127 100 137 147 144 145 132 129 134 135 132 131 117 110 111 99 87 86 108 110 109 119 113 105 107 102 104 112 113 123 117 114 118 119 120 78 52 103 97 124 129 53
306 299 299 297 312 318 313 312 314 323 319 321 318 317 315 314 312 280 275 285 294 297 297 295 293 293 294 292 291 293 299 300 301 299 295 292 289 285 263 208 162 153 130 112 109 113 119 143 157 158 148 140 140 133 139 139 143 142 142 118 119 119 118 121 133 113 114 105 103 101 107 117 125 131 135 143 135 139 117 89 68 106 100 88 82
282 288 295 298 303 306 314 314 314 316 315 319 320 317 316 315 317 320 312 285 284 293 294 292 291 293 298 301 300 288 279 284 293 297 295 288 282 277 251 192 171 159 137 141 156 159 163 169 173 178 173 159 153 152 150 144 143 144 139 137 131 129 116 128 124 102 100 108 111 118 127 130 134 131 142 143 132 120 88 96 91 81 74 60 339
238 252 270 284 299 308 312 309 306 301 299 307 307 311 305 301 305 314 318 323 324 305 274 260 276 297 301 301 300 299 299 295 290 291 294 289 276 260 183 151 167 177 170 171 166 176 173 179 183 186 180 169 160 154 146 139 133 122 114 106 108 107 113 111 93 99 105 113 118 132 128 127 135 138 128 80 82 105 107 107 96 86 54 128 295
291 284 278 278 295 299 304 303 303 298 302 300 311 313 306 310 313 308 305 306 305 306 313 316 312 303 307 311 307 301 293 295 298 298 294 282 258 167 122 115 135 195 214 198 183 174 177 178 176 187 216 191 163 152 142 138 134 135 131 121 113 112 97 94 109 116 115 114 121 125 124 129 121 107 121 122 113 103 116 107 118 150 142 303 341
286 268 269 296 311 312 309 310 310 302 291 289 297 302 305 309 308 301 299 295 292 296 302 302 302 309 310 304 292 291 309 315 309 303 293 265 188 145 142 179 176 193 189 183 166 164 151 149 143 137 132 139 138 132 134 140 141 135 136 134 129 119 118 122 127 116 102 100 106 110 106 100 109 107 102 105 125 138 153 163 177 200 206 288 337
293 294 299 306 319 305 304 309 311 302 292 294 300 305 304 303 298 299 297 293 296 297 298 302 313 319 321 326 305 304 311 324 342 11 4 356 173 167 178 176 179 171 175 169 154 149 148 154 149 137 131 128 136 132 134 131 131 126 123 117 117 118 134 143 129 117 108 106 116 114 109 120 123 129 127 130 148 156 168 182 192 264 333 3 354
274 257 237 287 298 298 311 312 304 306 303 300 299 290 290 289 289 289 289 293 296 300 302 306 310 304 310 312 316 295 297 334 1 14 20 25 19 26 41 106 168 175 174 169 163 156 155 156 148 148 142 132 123 112 108 109 116 118 113 110 113 117 114 107 99 101 107 114 115 117 119 127 135 134 131 139 159 173 193 193 139 7 359 341 343
313 261 220 263 274 275 288 292 296 301 300 297 287 289 286 288 293 293 294 296 301 301 302 304 304 304 305 311 311 319 14 19 16 14 32 42 44 43 68 52 41 54 115 143 143 140 139 134 127 125 124 118 110 109 109 107 107 108 111 110 107 112 106 105 107 110 110 113 112 118 126 133 143 150 146 146 168 175 164 175 164 118 21 306 303
271 280 250 248 289 291 291 283 288 292 290 290 287 280 285 288 284 290 298 305 305 306 314 314 311 312 313 321 315 340 40 15 360 360 73 74 65 43 40 43 41 46 73 92 99 118 123 116 105 99 109 112 113 114 115 119 113 109 111 119 125 118 121 122 124 122 121 122 126 129 128 149 153 149 163 164 181 184 169 143 92 137 242 276 285
230 245 244 256 277 297 305 304 295 293 290 286 275 276 271 277 284 284 299 307 307 323 329 319 315 319 323 324 291 308 83 44 2 23 13 66 71 54 32 32 50 42 42 87 105 103 102 104 107 111 104 101 105 107 101 95 98 102 103 100 106 117 120 120 123 123 126 129 132 130 136 140 148 141 166 202 155 96 103 133 130 2 307 288 277
206 167 291 297 299 311 311 311 314 312 309 299 293 282 285 279 283 313 331 338 356 353 341 337 334 328 329 352 337 297 319 37 46 60 47 20 35 47 27 44 46 52 70 51 53 87 103 104 104 101 100 100 100 103 108 110 108 105 105 116 126 127 121 122 122 121 123 121 116 121 130 136 151 158 157 131 127 116 69 48 46 282 276 283 274
183 204 260 306 321 316 303 304 313 327 336 335 326 317 307 271 358 29 24 27 19 9 9 354 346 345 353 351 8 24 28 20 42 38 31 23 24 24 19 31 35 51 67 67 63 63 63 77 78 75 79 81 86 96 103 111 111 110 119 123 122 117 117 116 112 113 111 109 109 110 122 133 122 117 123 115 93 79 70 25 341 297 284 267 275
172 249 297 308 317 332 323 327 341 341 332 327 335 359 11 36 50 47 47 36 27 23 8 1 360 4 360 360 13 30 27 23 30 42 42 33 34 30 32 40 46 55 63 64 64 70 69 67 73 73 71 71 73 77 82 91 112 124 130 123 117 113 116 121 127 135 131 122 120 114 104 97 97 106 69 49 58 48 25 16 6 333 297 292 308
159 116 8 360 336 24 354 343 356 349 339 351 12 10 17 43 59 64 58 51 36 28 10 14 18 15 16 16 18 24 25 32 40 47 51 48 50 45 46 56 60 60 66 66 69 78 77 75 74 79 79 72 68 69 68 66 68 86 109 120 122 120 129 135 148 150 134 123 123 121 114 104 84 76 76 63 61 49 8 11 351 298 306 307 345
147 147 137 17 339 2 29 4 6 19 15 14 12 18 17 38 61 61 53 50 50 40 27 29 30 28 23 20 17 24 23 33 43 49 53 51 51 55 62 69 68 69 69 72 68 71 73 77 81 83 84 84 82 78 72 67 64 65 66 71 88 104 114 120 122 114 113 120 123 119 119 103 86 66 49 42 39 41 6 336 316 302 280 275 286
138 141 113 50 97 46 31 16 37 32 24 18 20 27 21 20 64 71 54 47 52 51 42 37 42 38 34 31 30 30 32 41 47 52 54 54 51 52 56 68 77 79 76 75 74 72 73 74 81 86 89 86 84 79 77 67 64 62 61 72 86 89 83 77 72 80 99 110 117 113 112 114 108 91 48 49 46 32 9 342 326 317 308 288 286
149 157 180 275 68 69 46 36 38 33 39 26 22 24 35 41 58 66 54 35 43 49 51 48 44 45 46 42 37 42 47 54 57 58 59 59 59 58 59 63 69 74 78 77 76 77 76 76 75 82 85 86 88 88 83 78 75 71 63 59 59 69 74 75 71 69 73 90 97 112 119 122 143 138 78 67 57 34 13 348 340 321 304 329 340
138 128 117 91 98 93 82 67 53 42 31 29 31 35 49 66 72 63 61 54 48 46 50 57 50 49 53 48 46 50 53 61 64 64 62 59 61 63 66 69 69 68 72 74 73 72 69 68 68 70 76 80 84 85 74 77 77 80 76 66 73 65 60 58 66 65 66 70 77 85 94 94 81 67 46 35 31 44 340 298 288 304 328 319 323
149 141 151 171 127 103 73 70 59 43 34 34 43 48 51 70 77 76 72 61 51 54 57 57 55 53 55 55 52 51 53 61 64 69 71 66 63 61 65 67 70 71 74 75 72 69 68 66 66 68 71 76 80 81 76 73 72 74 78 86 92 88 88 94 102 84 73 88 92 98 93 97 112 103 118 101 5 34 24 342 339 339 332 311 325
143 139 163 167 163 132 91 77 61 51 38 40 44 50 63 70 79 78 78 75 72 65 67 64 61 64 63 61 64 65 65 63 59 65 71 74 75 76 77 79 81 81 78 77 74 71 69 69 69 73 76 77 74 70 65 71 64 72 85 101 111 127 129 116 107 109 108 97 99 110 112 124 87 34 7 10 21 28 359 340 327 336 325 291 310